Location: Albany
(35.0000°S, 118.0000°E)
Time: 06:44:16
(UTC-04:00)

Transit 2A - Visible Passes

Search period start: 30 May 2016 00:00
Search period end: 09 June 2016 00:00
Orbit: 593 x 967 km, 66.7° (Epoch: 29 May)

Date Brightness Start Highest point End Pass type
(mag) Time Alt. Az. Time Alt. Az. Time Alt. Az.
30 May 6.1 05:45:23 10° NNW 05:51:06 81° ENE 05:56:16 10° SSE visible
30 May 8.5 07:32:09 10° W 07:34:43 13° SW 07:37:11 10° SSW visible
31 May 8.3 06:56:41 10° W 07:00:33 19° SW 07:04:12 10° S visible
01 Jun 7.8 06:21:46 10° WNW 06:26:27 28° WSW 06:30:48 10° S visible
02 Jun 7.2 05:47:12 10° NW 05:52:25 41° WSW 05:57:12 10° S visible
04 Jun 8.5 06:26:14 10° WSW 06:28:09 12° SW 06:30:01 10° SSW visible
05 Jun 8.3 05:50:28 10° W 05:53:58 17° SW 05:57:18 10° S visible
